Flag for U.S.A. Weather past 2 weeks in West Palm Beach, Florida, U.S.A.

Now
79 °F

Broken clouds.


Feels Like: 83 °F
Forecast: 77 / 86 °F
Wind: 8 mph from West

Location: Palm Beach International Airport

Current Time: Jul 29, 2015 at 6:24:42 PM

Latest Report: Jul 29, 2015 at 4:53 PM


Visibility: 10 mi

Pressure: 29.99 "Hg

Humidity: 84%

Dew point: 74 °F

Location of West Palm BeachLocation

Historic Weather in West Palm Beach — Graph

°F

West Palm Beach temperature yesterday

Maximum temperature yesterday: 94 °F (at 3:53 PM)
Minimum temperature yesterday: 76 °F (at 4:53 AM)
Average temperature yesterday: 84 °F

Past Weeks' High & Low Weather Summary

 TemperatureHumidityPressure
High94 °F (Jul 28, 3:53 PM)97% (Jul 28, 6:53 AM)30.10 "Hg (Jul 28, 6:53 AM)
Low74 °F (Jul 17, 6:53 AM)44% (Jul 28, 3:53 PM)29.88 "Hg (Jul 26, 4:53 AM)
Average82 °F76%30.01 "Hg
* Reported Jul 14 4:53 PM — Jul 29 4:53 PM, West Palm Beach, Weather by CustomWeather, © 2015

Note: Actual official high and low records may vary slightly from our data, if they occured in-between our weather recording intervals... More about our weather records

Advertising

West Palm Beach weather history for previous 24 hours

 ConditionsComfort  
Time TempWeatherWind HumidityBarometerVisibility
4:53 PM
Wed, Jul 29
79 °FBroken clouds.8 mph84%29.99 "Hg10 mi
3:53 PM79 °FBroken clouds.7 mph84%30.01 "Hg10 mi
2:53 PM76 °FBroken clouds.9 mph85%30.02 "Hg10 mi
2:04 PM81 °FThunderstorms. Partly sunny.25 mph79%30.05 "Hg2 mi
1:53 PM87 °FThunderstorms. Partly sunny.14 mph65%30.01 "Hg10 mi
12:53 PM88 °FBroken clouds.12 mph63%30.01 "Hg10 mi
11:53 AM86 °FBroken clouds.12 mph70%30.01 "Hg10 mi
10:53 AM85 °FBroken clouds.13 mph72%30.02 "Hg10 mi
9:53 AM84 °FPartly sunny.12 mph74%30.02 "Hg10 mi
8:53 AM82 °FPartly sunny.8 mph82%30.01 "Hg10 mi
7:53 AM80 °FPartly sunny.7 mph87%29.99 "Hg10 mi
6:53 AM78 °FPassing clouds.7 mph90%29.98 "Hg10 mi
5:53 AM79 °FPassing clouds.7 mph88%29.97 "Hg10 mi
4:53 AM79 °FPassing clouds.6 mph88%29.98 "Hg10 mi
3:53 AM80 °FPassing clouds.8 mph85%29.98 "Hg10 mi
2:53 AM80 °FPassing clouds.7 mph85%29.98 "Hg10 mi
1:53 AM81 °FPassing clouds.8 mph82%29.98 "Hg10 mi
12:53 AM82 °FPassing clouds.10 mph79%29.99 "Hg10 mi
11:53 PM
Tue, Jul 28
83 °FPassing clouds.9 mph74%30.00 "Hg10 mi
10:53 PM84 °FPassing clouds.8 mph72%30.00 "Hg10 mi
9:53 PM85 °FPassing clouds.10 mph68%30.00 "Hg10 mi
8:53 PM87 °FPartly sunny.9 mph61%29.99 "Hg10 mi
7:53 PM88 °FBroken clouds.9 mph57%29.96 "Hg10 mi
6:53 PM91 °FBroken clouds.14 mph50%29.94 "Hg10 mi
Weather by CustomWeather, © 2015

See weather overviewHow to use our weather pages